Time,TemperatureF,DewpointF,PressureIn,WindDirection,WindDirectionDegrees,WindSpeedMPH,WindSpeedGustMPH,Humidity,HourlyPrecipIn,Conditions,Clouds,dailyrainin,SoftwareType,DateUTC
2013-05-19 00:03:00,68.0,66.0,30.03,SSW,196,0.0,-999.0,93,-99.99,,,-99.99,,2013-05-19 04:03:00,
2013-05-19 00:12:00,68.0,66.0,30.03,SSW,196,0.0,-999.0,93,-99.99,,,-99.99,,2013-05-19 04:12:00,
2013-05-19 00:23:00,68.0,66.0,30.03,SSW,196,0.0,-999.0,92,-99.99,,,-99.99,,2013-05-19 04:23:00,
2013-05-19 00:33:00,68.0,66.0,30.03,SSW,209,0.0,-999.0,93,-99.99,,,-99.99,,2013-05-19 04:33:00,
2013-05-19 00:42:00,68.0,66.0,30.03,SSW,209,0.0,-999.0,93,-99.99,,,-99.99,,2013-05-19 04:42:00,
2013-05-19 00:53:00,68.0,66.0,30.03,SSW,209,0.0,-999.0,93,-99.99,,,-99.99,,2013-05-19 04:53:00,
2013-05-19 01:02:00,67.0,65.0,30.03,SSW,209,0.0,-999.0,93,-99.99,,,-99.99,,2013-05-19 05:02:00,
2013-05-19 01:12:00,67.0,65.0,30.03,SSW,209,0.0,-999.0,93,-99.99,,,-99.99,,2013-05-19 05:12:00,
2013-05-19 01:22:00,67.0,65.0,30.02,SSW,209,0.0,-999.0,94,-99.99,,,-99.99,,2013-05-19 05:22:00,
2013-05-19 01:32:00,67.0,65.0,30.02,SSW,209,0.0,-999.0,93,-99.99,,,-99.99,,2013-05-19 05:32:00,
2013-05-19 01:42:00,67.0,65.0,30.02,SSW,209,0.0,-999.0,94,-99.99,,,-99.99,,2013-05-19 05:42:00,
2013-05-19 01:52:00,67.0,65.0,30.02,SSW,209,0.0,-999.0,94,-99.99,,,-99.99,,2013-05-19 05:52:00,
2013-05-19 02:02:00,67.0,65.0,30.02,SSW,209,0.0,-999.0,94,-99.99,,,-99.99,,2013-05-19 06:02:00,
2013-05-19 02:12:00,67.0,65.0,30.02,SSW,209,0.0,-999.0,94,-99.99,,,-99.99,,2013-05-19 06:12:00,
2013-05-19 02:21:00,67.0,65.0,30.01,SSE,155,2.0,-999.0,94,-99.99,,,-99.99,,2013-05-19 06:21:00,
2013-05-19 02:32:00,67.0,65.0,30.01,SSE,159,0.0,-999.0,94,-99.99,,,-99.99,,2013-05-19 06:32:00,
2013-05-19 02:42:00,-999.0,-99.9,30.01,SSE,159,0.0,-999.0,-999,-99.99,,,-99.99,,2013-05-19 06:42:00,
2013-05-19 02:52:00,-999.0,-99.9,30.01,SSE,159,0.0,-999.0,-999,-99.99,,,-99.99,,2013-05-19 06:52:00,
2013-05-19 03:01:00,-999.0,-99.9,30.01,SSE,159,0.0,-999.0,-999,-99.99,,,-99.99,,2013-05-19 07:01:00,
2013-05-19 03:11:00,-999.0,-99.9,30.01,SSE,159,0.0,-999.0,-999,-99.99,,,-99.99,,2013-05-19 07:11:00,
2013-05-19 03:22:00,-999.0,-99.9,30.01,SSE,159,0.0,-999.0,-999,-99.99,,,-99.99,,2013-05-19 07:22:00,
2013-05-19 03:32:00,-999.0,-99.9,30.02,SSE,159,0.0,-999.0,-999,-99.99,,,-99.99,,2013-05-19 07:32:00,
2013-05-19 03:42:00,-999.0,-99.9,30.02,SSE,159,0.0,-999.0,-999,-99.99,,,-99.99,,2013-05-19 07:42:00,
2013-05-19 03:52:00,-999.0,-99.9,30.02,SSE,159,0.0,-999.0,-999,-99.99,,,-99.99,,2013-05-19 07:52:00,
2013-05-19 04:02:00,-999.0,-99.9,30.02,SSE,159,0.0,-999.0,-999,-99.99,,,-99.99,,2013-05-19 08:02:00,
2013-05-19 04:12:00,-999.0,-99.9,30.02,SSE,159,0.0,-999.0,-999,-99.99,,,-99.99,,2013-05-19 08:12:00,
2013-05-19 04:22:00,-999.0,-99.9,30.02,SSE,159,0.0,-999.0,-999,-99.99,,,-99.99,,2013-05-19 08:22:00,
2013-05-19 04:32:00,-999.0,-99.9,30.02,SSE,159,0.0,-999.0,-999,-99.99,,,-99.99,,2013-05-19 08:32:00,
2013-05-19 04:42:00,-999.0,-99.9,30.02,SSE,159,0.0,-999.0,-999,-99.99,,,-99.99,,2013-05-19 08:42:00,
2013-05-19 04:52:00,-999.0,-99.9,30.02,SSE,159,0.0,-999.0,-999,-99.99,,,-99.99,,2013-05-19 08:52:00,
2013-05-19 05:02:00,-999.0,-99.9,30.01,SSE,159,0.0,-999.0,-999,-99.99,,,-99.99,,2013-05-19 09:02:00,
2013-05-19 05:12:00,-999.0,-99.9,30.01,SSE,159,0.0,-999.0,-999,-99.99,,,-99.99,,2013-05-19 09:12:00,
2013-05-19 05:21:00,-999.0,-99.9,30.01,SSE,159,0.0,-999.0,-999,-99.99,,,-99.99,,2013-05-19 09:21:00,
2013-05-19 05:33:00,-999.0,-99.9,30.02,SSE,159,0.0,-999.0,-999,-99.99,,,-99.99,,2013-05-19 09:33:00,
2013-05-19 05:43:00,-999.0,-99.9,30.02,SSE,159,0.0,-999.0,-999,-99.99,,,-99.99,,2013-05-19 09:43:00,
2013-05-19 05:53:00,-999.0,-99.9,30.03,SSE,159,0.0,-999.0,-999,-99.99,,,-99.99,,2013-05-19 09:53:00,
2013-05-19 06:03:00,-999.0,-99.9,30.02,SSE,159,0.0,-999.0,-999,-99.99,,,-99.99,,2013-05-19 10:03:00,
2013-05-19 06:13:00,-999.0,-99.9,30.03,SSE,159,0.0,-999.0,-999,-99.99,,,-99.99,,2013-05-19 10:13:00,
2013-05-19 06:23:00,-999.0,-99.9,30.03,SSE,159,0.0,-999.0,-999,-99.99,,,-99.99,,2013-05-19 10:23:00,
2013-05-19 06:33:00,-999.0,-99.9,30.03,SSE,159,0.0,-999.0,-999,-99.99,,,-99.99,,2013-05-19 10:33:00,
2013-05-19 06:42:00,-999.0,-99.9,30.03,SSE,159,0.0,-999.0,-999,-99.99,,,-99.99,,2013-05-19 10:42:00,
2013-05-19 06:53:00,-999.0,-99.9,30.04,SSE,159,0.0,-999.0,-999,-99.99,,,-99.99,,2013-05-19 10:53:00,
2013-05-19 07:02:00,-999.0,-99.9,30.03,SSE,159,0.0,-999.0,-999,-99.99,,,-99.99,,2013-05-19 11:02:00,
2013-05-19 07:12:00,-999.0,-99.9,30.03,SSE,159,0.0,-999.0,-999,-99.99,,,-99.99,,2013-05-19 11:12:00,
2013-05-19 07:22:00,-999.0,-99.9,30.04,SSE,159,0.0,-999.0,-999,-99.99,,,-99.99,,2013-05-19 11:22:00,
2013-05-19 07:32:00,-999.0,-99.9,30.05,SSE,159,0.0,-999.0,-999,-99.99,,,-99.99,,2013-05-19 11:32:00,
2013-05-19 07:42:00,-999.0,-99.9,30.05,SSE,159,0.0,-999.0,-999,-99.99,,,-99.99,,2013-05-19 11:42:00,
2013-05-19 07:53:00,-999.0,-99.9,30.04,SSE,159,0.0,-999.0,-999,-99.99,,,-99.99,,2013-05-19 11:53:00,
2013-05-19 08:01:00,-999.0,-99.9,30.05,SSE,159,0.0,-999.0,-999,-99.99,,,-99.99,,2013-05-19 12:01:00,
2013-05-19 08:12:00,-999.0,-99.9,30.05,SSE,159,0.0,-999.0,-999,-99.99,,,-99.99,,2013-05-19 12:12:00,
2013-05-19 08:22:00,-999.0,-99.9,30.05,SSE,159,0.0,-999.0,-999,-99.99,,,-99.99,,2013-05-19 12:22:00,
2013-05-19 08:32:00,-999.0,-99.9,30.06,SSE,159,0.0,-999.0,-999,-99.99,,,-99.99,,2013-05-19 12:32:00,
2013-05-19 08:42:00,-999.0,-99.9,30.06,SSE,159,0.0,-999.0,-999,-99.99,,,-99.99,,2013-05-19 12:42:00,
2013-05-19 08:52:00,-999.0,-99.9,30.06,SSE,159,0.0,-999.0,-999,-99.99,,,-99.99,,2013-05-19 12:52:00,
2013-05-19 09:01:00,-999.0,-99.9,30.06,SSE,159,0.0,-999.0,-999,-99.99,,,-99.99,,2013-05-19 13:01:00,
2013-05-19 09:12:00,-999.0,-99.9,30.06,SSE,159,0.0,-999.0,-999,-99.99,,,-99.99,,2013-05-19 13:12:00,
2013-05-19 09:21:00,-999.0,-99.9,30.05,SSE,159,0.0,-999.0,-999,-99.99,,,-99.99,,2013-05-19 13:21:00,
2013-05-19 09:32:00,-999.0,-99.9,30.06,SSE,161,1.0,-999.0,-999,-99.99,,,-99.99,,2013-05-19 13:32:00,
2013-05-19 09:42:00,-999.0,-99.9,30.06,SSE,161,1.0,-999.0,-999,-99.99,,,-99.99,,2013-05-19 13:42:00,
2013-05-19 09:52:00,-999.0,-99.9,30.05,SSW,209,1.0,-999.0,-999,-99.99,,,-99.99,,2013-05-19 13:52:00,
2013-05-19 10:02:00,-999.0,-99.9,30.04,SSW,208,0.0,-999.0,-999,-99.99,,,-99.99,,2013-05-19 14:02:00,
2013-05-19 10:11:00,-999.0,-99.9,30.04,SSW,208,0.0,-999.0,-999,-99.99,,,-99.99,,2013-05-19 14:11:00,
2013-05-19 10:21:00,-999.0,-99.9,30.04,South,180,0.0,-999.0,-999,-99.99,,,-99.99,,2013-05-19 14:21:00,
2013-05-19 10:32:00,-999.0,-99.9,30.03,SSE,149,2.0,-999.0,-999,-99.99,,,-99.99,,2013-05-19 14:32:00,
2013-05-19 10:42:00,-999.0,-99.9,30.03,SSE,149,2.0,-999.0,-999,-99.99,,,-99.99,,2013-05-19 14:42:00,
2013-05-19 10:52:00,-999.0,-99.9,30.03,South,187,0.0,-999.0,-999,-99.99,,,-99.99,,2013-05-19 14:52:00,
2013-05-19 11:02:00,-999.0,-99.9,30.04,South,179,0.0,-999.0,-999,-99.99,,,-99.99,,2013-05-19 15:02:00,
2013-05-19 11:12:00,-999.0,-99.9,30.04,South,179,0.0,-999.0,-999,-99.99,,,-99.99,,2013-05-19 15:12:00,
2013-05-19 11:22:00,-999.0,-99.9,30.05,South,189,2.0,-999.0,-999,-99.99,,,-99.99,,2013-05-19 15:22:00,
2013-05-19 11:33:00,-999.0,-99.9,30.04,South,179,1.0,-999.0,-999,-99.99,,,-99.99,,2013-05-19 15:33:00,
2013-05-19 11:43:00,-999.0,-99.9,30.04,South,179,1.0,-999.0,-999,-99.99,,,-99.99,,2013-05-19 15:43:00,
2013-05-19 11:53:00,-999.0,-99.9,30.03,South,180,1.0,-999.0,-999,-99.99,,,-99.99,,2013-05-19 15:53:00,
2013-05-19 12:03:00,-999.0,-99.9,30.04,South,180,0.0,-999.0,-999,-99.99,,,-99.99,,2013-05-19 16:03:00,
2013-05-19 12:13:00,-999.0,-99.9,30.04,South,180,0.0,-999.0,-999,-99.99,,,-99.99,,2013-05-19 16:13:00,
2013-05-19 12:23:00,-999.0,-99.9,30.04,SW,236,0.0,-999.0,-999,-99.99,,,-99.99,,2013-05-19 16:23:00,
2013-05-19 12:33:00,-999.0,-99.9,30.04,WSW,242,1.0,-999.0,-999,-99.99,,,-99.99,,2013-05-19 16:33:00,
2013-05-19 12:42:00,-999.0,-99.9,30.04,WSW,242,1.0,-999.0,-999,-99.99,,,-99.99,,2013-05-19 16:42:00,
2013-05-19 12:53:00,-999.0,-99.9,30.06,WSW,249,0.0,-999.0,-999,-99.99,,,-99.99,,2013-05-19 16:53:00,
2013-05-19 13:02:00,-999.0,-99.9,30.07,WSW,249,0.0,-999.0,-999,-99.99,,,-99.99,,2013-05-19 17:02:00,
2013-05-19 13:12:00,-999.0,-99.9,30.07,WSW,249,0.0,-999.0,-999,-99.99,,,-99.99,,2013-05-19 17:12:00,
2013-05-19 13:22:00,-999.0,-99.9,30.08,WSW,237,0.0,-999.0,-999,-99.99,,,-99.99,,2013-05-19 17:22:00,
2013-05-19 13:32:00,-999.0,-99.9,30.05,SSW,208,6.0,-999.0,-999,-99.99,,,-99.99,,2013-05-19 17:32:00,
2013-05-19 13:43:00,-999.0,-99.9,30.05,SSW,208,6.0,-999.0,-999,-99.99,,,-99.99,,2013-05-19 17:43:00,
2013-05-19 13:52:00,-999.0,-99.9,30.05,ESE,105,0.0,-999.0,-999,-99.99,,,-99.99,,2013-05-19 17:52:00,
2013-05-19 14:02:00,-999.0,-99.9,30.09,West,271,1.0,-999.0,-999,-99.99,,,-99.99,,2013-05-19 18:02:00,
2013-05-19 14:12:00,-999.0,-99.9,30.09,West,271,1.0,-999.0,-999,-99.99,,,-99.99,,2013-05-19 18:12:00,
2013-05-19 14:22:00,-999.0,-99.9,30.09,SW,216,2.0,-999.0,-999,-99.99,,,-99.99,,2013-05-19 18:22:00,
2013-05-19 14:32:00,-999.0,-99.9,30.07,SW,229,1.0,-999.0,-999,-99.99,,,-99.99,,2013-05-19 18:32:00,
2013-05-19 14:43:00,-999.0,-99.9,30.07,SW,229,1.0,-999.0,-999,-99.99,,,-99.99,,2013-05-19 18:43:00,
2013-05-19 14:53:00,-999.0,-99.9,30.02,SSE,160,7.0,-999.0,-999,-99.99,,,-99.99,,2013-05-19 18:53:00,
2013-05-19 15:01:00,-999.0,-99.9,30.02,SSE,160,7.0,-999.0,-999,-99.99,,,-99.99,,2013-05-19 19:01:00,
2013-05-19 15:11:00,-999.0,-99.9,30.02,SSE,160,7.0,-999.0,-999,-99.99,,,-99.99,,2013-05-19 19:11:00,
2013-05-19 15:22:00,-999.0,-99.9,30.02,SSE,160,7.0,-999.0,-999,-99.99,,,-99.99,,2013-05-19 19:22:00,
2013-05-19 15:32:00,-999.0,-99.9,30.02,SSE,160,7.0,-999.0,-999,-99.99,,,-99.99,,2013-05-19 19:32:00,